AMAZONAS NEXUS

Last updated on Sun Apr 12 2026 00:02:56 GMT+0000 (Coordinated Universal Time)

1 55508U 23017A 26101.29468941 .00000000 00000+0 00000+0 0 9997 2 55508 0.0163 55.7312 0004954 335.7787 213.1099 1.00268932 6372
UTC large
Height (km)
Speed (km/s)
/
Latitude / Longitude
Inclination (degrees)
Orbital Period (minutes)
Azimuth
Elevation
Range (km)
Doppler Factor

Next 0 passes for location: London (51.5072 / 0.1276)

Sorry there are no passes over London.